Location: *
(51.1248°S, 108.4023°W)
Time: 04:13:35
(UTC+00:00)

Cosmos 2278 Rocket - Pass Details

Date: 27 October 2021
Orbit: 841 x 845 km, 71.0° (Epoch: 01 December)

Event Time Altitude Azimuth Distance (km) Brightness Sun altitude
Exits shadow 09:11:51 - 258° (WSW) 3,467 5.2 -19.6°
Rises 09:11:59 0° 257° (WSW) 3,425 5.1 -19.6°
Reaches altitude 10° 09:15:54 10° 230° (SW) 2,494 4.7 -19.2°
Maximum altitude 09:18:39 13° 202° (SSW) 2,257 4.8 -19.0°
Drops below altitude 10° 09:21:24 10° 173° (S) 2,500 5.5 -18.7°
Sets 09:25:21 0° 146° (SE) 3,439 7.1 -18.3°
